Regional Weather Roundup
Issued by NWS

Home | Current Version | Previous Version | Graphics & Text | Print | Product List | Glossary On
Versions: 1 2 3 4 5 6 7 8 9 10 11 12 13 14 15 16 17 18 19 20 21 22 23 24 25 26 27 28 29 30 31 32 33 34 35 36 37 38 39 40 41 42 43 44 45 46 47 48 49 50
000
ASUS43 KMPX 251001
RWRMN
WEATHER ROUNDUP FOR MINNESOTA
NATIONAL WEATHER SERVICE TWIN CITIES/CHANHASSEN MN
500 AM CDT SAT APR 25 2015


NOTE: "FAIR" INDICATES FEW OR NO CLOUDS BELOW 12,000 FEET WITH NO
SIGNIFICANT WEATHER AND/OR OBSTRUCTIONS TO VISIBILITY. N/A MEANS
CURRENT SKY AND/OR WEATHER CONDITIONS ARE NOT AVAILABLE.

MNZ060>063-068>070-251100-
   Twin Cities Metro

CITY           SKY/WX    TMP DP  RH WIND       PRES   REMARKS
TWIN CITIES    CLOUDY    43  38  82 E15       29.81S
ST PAUL        CLOUDY    43  37  79 E10       29.83S
CRYSTAL        CLOUDY    45  37  73 E8        29.81R
BLAINE         CLOUDY    45  39  81 E13       29.82S
LAKEVILLE      CLOUDY    39  37  93 E12       29.79S
EDEN PRAIRIE   CLOUDY    43  38  82 E13       29.78F
SOUTH ST PAUL  CLOUDY    43  37  80 E8G16     29.82S
LAKE ELMO      CLOUDY    43  37  81 E8        29.84S
$$
MNZ001>005-007-008-013>017-022>024-027-028-251100-
   Northwest Minnesota

CITY           SKY/WX    TMP DP  RH WIND       PRES   REMARKS
BEMIDJI        CLOUDY    38  26  61 E9        29.87S
HALLOCK        CLOUDY    41  32  70 E8        29.87R
ROSEAU         CLOUDY    41  28  60 E8        29.90R
WARROAD        CLOUDY    37  28  70 E8        29.92R
THIEF RVR FALL CLOUDY    41  30  65 E12       29.87R
CROOKSTON      CLOUDY    43  32  65 E10       29.85R
FOSSTON        CLOUDY    39  30  70 E6        29.86R
DETROIT LAKES  CLOUDY    41  34  75 SE9       29.82S
MOORHEAD       CLOUDY    43  36  75 E9        29.82R
PARK RAPIDS    CLOUDY    41  31  67 E8        29.84R
MAHNOMEN       CLOUDY    42  33  71 E9        29.83R
$$
MNZ006-009>011-018-025>026-251100-
   North Central Minnesota

CITY           SKY/WX    TMP DP  RH WIND       PRES   REMARKS
BAUDETTE       CLOUDY    38  23  55 SE9       29.92R
FLAG ISLAND    CLOUDY    39  27  60 E7        29.93R
INTL FALLS     CLOUDY    37  19  48 SE8       29.94R
WASKISH        CLOUDY    37  23  56 E6        29.90R
BIG FORK       CLOUDY    37  19  48 E7        29.91S
LONGVILLE      CLOUDY    37  27  65 E3        29.87S
GRAND RAPIDS   CLOUDY    37  21  52 E6        29.90R
CRANE LAKE     MOCLDY    34  18  51 CALM      29.98R
ORR            CLOUDY    36  16  44 CALM      29.91S
COOK           CLOUDY    36  18  48 E5        29.94S
WALKER         CLOUDY    38  28  68 E6        29.87R
$$
MNZ012-019>021-037-251100-
   Northeast Minnesota

CITY           SKY/WX    TMP DP  RH WIND       PRES   REMARKS
DULUTH         CLOUDY    35  24  64 E13       29.92R WCI  26
ELY            CLOUDY    36  12  38 E3        29.95S
HIBBING        CLOUDY    37  16  42 E8        29.91R
EVELETH        CLOUDY    36  16  44 NE5       29.93S
DULUTH HARBOR  CLOUDY    36  32  87 NE25      29.96R
TWO HARBORS    CLOUDY    37  25  60 NE9G18    29.94R
SILVER BAY     CLOUDY    36  19  51 N8        29.95R
GRAND MARAIS     N/A     37  11  34 NE8       30.01S
G MARAIS ARPRT CLOUDY    30   7  37 NE5       29.97S WCI  25
$$
MNZ029>031-032-039>041-046>048-054>057-064-251100-
   West Central Minnesota

CITY           SKY/WX    TMP DP  RH WIND       PRES   REMARKS
FERGUS FALLS   CLOUDY    43  37  81 E9        29.80S
WHEATON        CLOUDY    39  39 100 E12       29.77R FOG
MORRIS         CLOUDY    43  43 100 E16       29.74S FOG
ALEXANDRIA     LGT RAIN  41  40  96 E13       29.79R FOG
ELBOW LAKE     CLOUDY    42  41  95 E12       29.77R
WADENA         CLOUDY    37  32  81 NE9       29.82R
GLENWOOD       DRIZZLE   41  41 100 E14       29.78S
APPLETON       CLOUDY    45  43  93 E14       29.74R FOG
BENSON         CLOUDY    43  41  93 SE10G16   29.75S FOG
ORTONVILLE     CLOUDY    43  39  87 E14       29.73S
MADISON        CLOUDY    45  43  93 E14       29.73R FOG
WILLMAR        CLOUDY    43  43 100 E14       29.78R FOG
$$
MNZ033>034-036-042>043-049>051-058-059-251100-
   Central Minnesota

CITY           SKY/WX    TMP DP  RH WIND       PRES   REMARKS
ST CLOUD       CLOUDY    43  37  79 E8        29.82R
SAUK CENTRE    CLOUDY    40  40  99 E10       29.80R FOG
PAYNESVILLE    CLOUDY    39  39 100 NE10      29.80R FOG
AITKIN         CLOUDY    37  28  70 E6        29.86R
PINE RIVER     CLOUDY    37  30  75 E7        29.89R
BRAINERD       CLOUDY    38  30  73 E9        29.85R
STAPLES        CLOUDY    37  32  81 E9        29.83R
LONG PRAIRIE   CLOUDY    37  37 100 E9        29.81S FOG
LITTLE FALLS   CLOUDY    39  32  75 E6        29.82S
LITCHFIELD     CLOUDY    43  43 100 E9        29.79S FOG
BUFFALO        CLOUDY    43  37  79 E9        29.82R
MAPLE LAKE     CLOUDY    44  40  84 E9        29.82R
$$
MNZ037-044-045-052-053-251100-
   East Central Minnesota

CITY           SKY/WX    TMP DP  RH WIND       PRES   REMARKS
PRINCETON      CLOUDY    45  37  76 E10       29.84R
MORA           MOCLDY    37  32  81 E5        29.87S
CAMBRIDGE      CLOUDY    46  34  61 E3        29.82S
RUSH CITY      CLOUDY    44  34  69 E7        29.86R
MOOSE LAKE     CLOUDY    34  30  86 CALM      29.88R
HINCKLEY       CLOUDY    39  32  75 NE7       29.86S
CLOQUET        CLOUDY    34  27  75 E9        29.90S WCI  26
MCGREGOR       CLOUDY    36  30  80 E8        29.89R
$$
MNZ071>073-080-081-089-090-097-098-251100-
   Southwest Minnesota

CITY           SKY/WX    TMP DP  RH WIND       PRES   REMARKS
MONTEVIDEO     CLOUDY    43  43 100 SE14      29.74S FOG
GRANITE FALLS  CLOUDY    43  40  91 E10       29.74S
CANBY          CLOUDY    43  41  93 E12       29.72S
MARSHALL       CLOUDY    43  37  81 E16       29.70S
REDWOOD FALLS  CLOUDY    45  40  82 E8        29.73S
OLIVIA         CLOUDY    41  36  81 E12       29.74S
PIPESTONE      CLOUDY    45  43  93 E13G18    29.65R
WINDOM         MOCLDY    43  39  87 E13       29.70R
WORTHINGTON    CLOUDY    43  37  81 E15       29.67S
JACKSON        CLOUDY    43  37  81 E14       29.68S
TRACY          CLOUDY    44  41  87 E13       29.71R
SLAYTON        CLOUDY    42  42 100 E10       29.70R FOG
$$
MNZ065>067-074>077-082>085-091>093-251100-
   South Central Minnesota

CITY           SKY/WX    TMP DP  RH WIND       PRES   REMARKS
MANKATO        CLOUDY    43  36  75 E17G23    29.74S
NEW ULM        CLOUDY    43  39  87 E14G20    29.73F
ST JAMES       CLOUDY    45  39  81 E13       29.73R
FAIRMONT       CLOUDY    43  18  36 E14G21    29.69R
GLENCOE        CLOUDY    44  40  87 E14       29.77S
FARIBAULT      CLOUDY    43  37  81 E14       29.78S
OWATONNA       CLOUDY    41  37  87 E20       29.75F
WASECA         CLOUDY    43  37  81 E16G23    29.75S
ALBERT LEA     CLOUDY    43  37  81 E10       29.72F
$$
MNZ078>079-086>088-094>096-251100-
   Southeast Minnesota

CITY           SKY/WX    TMP DP  RH WIND       PRES   REMARKS
ROCHESTER      CLOUDY    40  36  86 E14       29.77S
RED WING       CLOUDY    43  37  81 E12       29.81S
STANTON        CLOUDY    43  37  81 E13       29.78S
DODGE CENTER   CLOUDY    41  37  87 E16       29.76S
AUSTIN         CLOUDY    41  36  81 E15G21    29.73S
PRESTON        CLOUDY    39  34  83 E14       29.77S
$$
ABBREVIATIONS USED IN REMARKS
   TC - TEMPERATURES IN CELSIUS
  WCI - WIND CHILL INDEX
   HX - HEAT INDEX
  VSB - VISIBILITY
$$



USA.gov is the U.S. government's official web portal to all federal, state and local government web resources and services.